OE5RPP Weather Reports


time (UTC)temp
C
wind
direction
speed
KPH
gust
KPH
rain 1hr
cm
rain 24hr
cm
rain mn
cm
humidity
%
barometer
mb
20260507115158 16 270 11.3 11.3 0.00 0.00 0.00 22 1016.9
20260507114159 16 180 3.2 0.0 0.00 0.00 0.00 22 1016.9
20260507113158 16 247 14.5 17.7 0.00 0.00 0.00 22 1016.9
20260507112156 16 247 6.4 8.0 0.00 0.00 0.00 22 1016.9
20260507111158 16 270 6.4 4.8 0.00 0.00 0.00 22 1016.9
20260507110157 15 225 8.0 9.7 0.00 0.00 0.00 22 1016.9
20260507105157 15 292 9.7 4.8 0.00 0.00 0.00 22 1016.9
20260507104156 15 270 9.7 8.0 0.00 0.00 0.00 22 1016.9
20260507103158 14 315 8.0 11.3 0.00 0.00 0.00 23 1016.9
20260507102131 15 270 9.7 4.8 0.00 0.00 0.00 22 1016.9
20260507101131 14 270 3.2 4.8 0.00 0.00 0.00 23 1016.9
20260507100136 14 292 9.7 9.7 0.00 0.00 0.00 23 1016.9
20260507095132 15 180 6.4 6.4 0.00 0.00 0.00 22 1016.9
20260507094136 14 0 6.4 6.4 0.00 0.00 0.00 23 1016.9
20260507093131 13 247 14.5 6.4 0.00 0.00 0.00 23 1016.9
20260507092136 14 225 8.0 8.0 0.00 0.00 0.00 23 1016.9
20260507090132 13 270 9.7 4.8 0.00 0.00 0.00 23 1016.9
20260507085136 14 180 6.4 8.0 0.00 0.00 0.00 23 1016.9
20260507081135 14 292 4.8 4.8 0.00 0.00 0.00 23 1015.9
20260507074133 14 180 1.6 0.0 0.00 0.00 0.00 30 1015.9
20260507073133 14 202 8.0 9.7 0.00 0.00 0.00 32 1015.9
20260507072132 13 270 3.2 0.0 0.00 0.00 0.00 32 1015.9
20260507070131 10 180 6.4 8.0 0.00 0.41 0.00 60 1015.9
20260507063136 10 180 6.4 8.0 0.00 0.41 0.00 60 1015.9
20260507062134 10 180 6.4 8.0 0.00 0.41 0.00 60 1015.9
20260507060136 10 180 6.4 8.0 0.00 0.41 0.00 60 1015.9
20260507055132 10 180 6.4 8.0 0.00 0.41 0.00 60 1015.9
20260507052131 10 180 6.4 8.0 0.00 0.41 0.00 60 1015.9
20260507051136 10 180 8.0 6.4 0.00 0.41 0.00 60 1015.9
20260507050131 10 157 6.4 6.4 0.00 0.41 0.00 60 1014.9
20260507044130 10 180 0.0 0.0 0.00 0.41 0.00 60 1014.9
20260507043135 9 180 6.4 6.4 0.00 0.41 0.00 61 1014.9
20260507040132 9 180 9.7 8.0 0.00 0.41 0.00 62 1014.9
20260507035131 9 157 4.8 6.4 0.00 0.41 0.00 62 1014.9
20260507034134 9 180 8.0 9.7 0.00 0.41 0.00 63 1014.9
20260507033132 9 135 9.7 6.4 0.00 0.41 0.00 62 1014.9
20260507030131 8 202 6.4 8.0 0.00 0.41 0.00 63 1013.9
20260507025132 8 180 6.4 6.4 0.00 0.41 0.00 62 1013.9
20260507024132 8 180 9.7 8.0 0.00 0.41 0.00 62 1013.9
20260507022131 9 157 9.7 11.3 0.00 0.41 0.00 63 1013.9
20260507020136 8 157 9.7 9.7 0.00 0.41 0.00 62 1013.9
20260507015131 8 157 8.0 8.0 0.00 0.41 0.00 62 1013.9
20260507014131 9 157 0.0 0.0 0.00 0.41 0.00 62 1013.9
20260507012136 9 180 8.0 8.0 0.00 0.41 0.00 62 1013.9
20260507011131 9 157 6.4 6.4 0.00 0.41 0.00 62 1013.9
20260507010130 9 202 6.4 6.4 0.00 0.41 0.00 62 1013.9
20260507004136 9 225 4.8 6.4 0.00 0.41 0.00 62 1013.9
20260507003131 9 157 14.5 16.1 0.00 0.41 0.00 61 1013.9
20260507001132 9 180 8.0 8.0 0.00 0.41 0.00 61 1013.9
20260506234135 10 180 4.8 6.4 0.00 0.41 0.00 60 1013.9
20260506232131 10 157 8.0 6.4 0.00 0.41 0.00 60 1013.9
20260506230137 10 180 8.0 9.7 0.00 0.41 0.00 59 1013.9
20260506224132 10 180 8.0 4.8 0.00 0.41 0.00 59 1013.9
20260506222132 10 157 4.8 8.0 0.00 0.41 0.00 59 1013.9
20260506221132 10 180 6.4 6.4 0.00 0.41 0.00 58 1012.9
20260506220131 10 180 9.7 9.7 0.00 0.41 0.00 58 1012.9
20260506212135 10 180 6.4 6.4 0.00 0.30 0.30 58 1012.9
20260506211131 10 225 3.2 4.8 0.00 0.30 0.30 57 1012.9
20260506204132 11 247 8.0 11.3 0.00 0.20 0.20 57 1012.9
20260506202136 11 270 12.9 12.9 0.00 0.20 0.20 58 1012.9
20260506195132 11 180 17.7 19.3 0.20 0.20 0.20 60 1011.9
20260506194131 12 225 11.3 14.5 0.20 0.20 0.20 59 1011.9
20260506193131 12 247 14.5 19.3 0.10 0.10 0.10 59 1011.9
20260506190136 12 270 6.4 6.4 0.00 0.00 0.00 51 1010.9
20260506185131 13 247 8.0 8.0 0.00 0.00 0.00 48 1010.9
20260506183135 13 180 9.7 6.4 0.00 0.00 0.00 40 1009.9
20260506182132 14 225 6.4 4.8 0.00 0.00 0.00 39 1009.9
20260506180132 14 225 8.0 6.4 0.00 0.00 0.00 34 1008.9
20260506175134 14 135 9.7 6.4 0.00 0.00 0.00 32 1008.9
20260506174131 14 270 14.5 12.9 0.00 0.00 0.00 30 1007.9
20260506173131 15 270 16.1 22.5 0.00 0.00 0.00 30 1007.9
20260506165135 22 180 8.0 4.8 0.00 0.00 0.00 18 1004.9
20260506164132 23 180 14.5 9.7 0.00 0.00 0.00 18 1004.9
20260506163133 26 135 11.3 11.3 0.00 0.00 0.00 17 1004.9
20260506162136 26 135 9.7 9.7 0.00 0.00 0.00 17 1004.9
20260506161132 26 157 9.7 12.9 0.00 0.00 0.00 17 1004.9
20260506160131 25 90 6.4 6.4 0.00 0.00 0.00 17 1004.9
20260506155131 25 90 4.8 4.8 0.00 0.00 0.00 17 1004.9
20260506153132 23 135 4.8 4.8 0.00 0.00 0.00 18 1005.9
20260506151135 22 90 3.2 6.4 0.00 0.00 0.00 18 1005.9
20260506145132 21 0 1.6 4.8 0.00 0.00 0.00 18 1005.9
20260506144134 21 0 6.4 6.4 0.00 0.00 0.00 20 1005.9
20260506141130 21 0 9.7 11.3 0.00 0.00 0.00 20 1006.9
20260506140131 22 22 8.0 6.4 0.00 0.00 0.00 18 1006.9
20260506134130 21 0 8.0 8.0 0.00 0.00 0.00 20 1006.9
20260506131131 23 22 9.7 6.4 0.00 0.00 0.00 18 1006.9
20260506130133 24 337 8.0 6.4 0.00 0.00 0.00 18 1007.9
20260506124134 22 337 8.0 9.7 0.00 0.00 0.00 18 1007.9
20260506122136 22 22 9.7 8.0 0.00 0.00 0.00 18 1007.9
20260506121133 23 0 8.0 6.4 0.00 0.00 0.00 18 1007.9